{"data":{"norad_id":49432,"epoch":"2026-05-24T17:49:27.523488Z","epoch_age_seconds":104109,"freshness":"FRESH","line1":"1 49432U 21104AA  26144.74267967 -.00000678  00000+0 -24524-4 0  9998","line2":"2 49432  53.2144 237.7027 0000722  80.2369 279.8705 15.08844734250256","mean_motion":15.08844734,"eccentricity":7.22e-5,"inclination_deg":53.2144,"raan_deg":237.7027,"arg_perigee_deg":80.2369,"mean_anomaly_deg":279.8705,"bstar":-2.4524e-5,"rev_number":25025,"period_min":95.43725524246,"perigee_km":539.22944913845,"apogee_km":540.22838897716,"semimajor_km":6917.8659190578,"source":"CELESTRAK","updated_at":"2026-05-25T13:38:16.799536Z"}}